Weather History for Dubuque, IA

Change the Weather History Date:

Friday, July 26, 2013

  Actual Average Record
Temperature  
Mean Temperature 67 °F 72 °F  
Max Temperature 77 °F 82 °F 107 °F (1936)
Min Temperature 57 °F 62 °F 48 °F (1962)
Degree Days  
Heating Degree Days 0 0  
Month to date heating degree days 2 0  
Since 1 June heating degree days 41 40  
Since 1 July heating degree days 2 0  
Cooling Degree Days 2 7  
Month to date cooling degree days 193 183  
Year to date cooling degree days 347 359  
Since 1 June cooling degree days 302 322  
Growing Degree Days 20 (Base 50)    
Moisture  
Dew Point 62 °F    
Average Humidity 75    
Maximum Humidity 100    
Minimum Humidity 49    
Precipitation  
Precipitation 0.05 in 0.14 in 2.10 in (1940)
Month to date precipitation 2.47 3.61  
Year to date precipitation 27.68 20.88  
Snow  
Snow 0.00 in 0.00 in - ()
Month to date snowfall 0.0 0.0  
Since 1 June snowfall 0.0 0.0  
Since 1 July snowfall 0.0 0.0  
Snow Depth 0.00 in    
Sea Level Pressure  
Sea Level Pressure 29.95 in    
Wind  
Wind Speed 12 mph (WSW)    
Max Wind Speed 22 mph    
Max Gust Speed 29 mph    
Visibility 10 miles    
Events Rain    
T = Trace of Precipitation, MM = Missing Value Source: NWS Daily Summary

Daily Weather History Graph

Daily Weather History Graph

Search for Another Location

Airport:

Trip Planner

Search our weather history database for the weather conditions in past years. The results will help you decide how hot, cold, wet, or windy it might be!

Date:

Astronomy

Jul. 26, 2013 Rise Set
Actual Time 5:49 AM CDT 8:28 PM CDT
Civil Twilight 5:17 AM CDT 9:00 PM CDT
Nautical Twilight 4:36 AM CDT 9:41 PM CDT
Astronomical Twilight 3:49 AM CDT 10:27 PM CDT
Moon 10:35 PM CDT (7/26) 10:32 AM CDT (7/26)
Length of Visible Light 15h 43m
Length of Day
14h 39m
Waning Gibbous, 80% of the Moon is Illuminated
Jul 26
Waning Gibbous
Jul 29
Last Quarter
Aug 6
New
Aug 14
First Quarter
Aug 20
Full

Hourly Weather History & Observations

Time (CDT) Temp. Dew Point Humidity Pressure Visibility Wind Dir Wind Speed Gust Speed Precip Events Conditions
12:53 AM 64.9 °F 64.0 °F 97% 30.00 in 9.0 mi SW 13.8 mph - 0.08 in Rain Light Rain
1:53 AM 63.0 °F 62.1 °F 97% 29.97 in 10.0 mi SSW 10.4 mph - 0.02 in Rain Light Rain
2:53 AM 63.0 °F 61.0 °F 93% 29.94 in 10.0 mi SSW 12.7 mph - 0.01 in   Mostly Cloudy
3:53 AM 62.1 °F 60.1 °F 93% 29.92 in 10.0 mi SW 12.7 mph - 0.00 in Rain Light Rain
4:53 AM 63.0 °F 61.0 °F 93% 29.94 in 10.0 mi SW 11.5 mph - 0.00 in   Clear
5:53 AM 63.0 °F 63.0 °F 100% 29.94 in 10.0 mi SW 10.4 mph - N/A   Overcast
6:37 AM 64.4 °F 64.4 °F 100% 29.96 in 10.0 mi SW 11.5 mph - N/A   Overcast
6:48 AM 64.4 °F 64.4 °F 100% 29.96 in 10.0 mi SW 10.4 mph - N/A   Overcast
6:53 AM 64.0 °F 64.0 °F 100% 29.95 in 10.0 mi SW 10.4 mph - N/A   Overcast
7:53 AM 64.0 °F 64.0 °F 100% 29.96 in 4.0 mi SW 10.4 mph - 0.01 in Rain Light Rain
8:53 AM 64.9 °F 64.9 °F 100% 29.96 in 6.0 mi SW 9.2 mph - 0.01 in   Overcast
9:53 AM 66.9 °F 66.0 °F 97% 29.95 in 6.0 mi WSW 11.5 mph - N/A   Overcast
10:53 AM 68.0 °F 66.0 °F 93% 29.94 in 8.0 mi WSW 10.4 mph - N/A   Overcast
11:22 AM 69.8 °F 66.2 °F 88% 29.95 in 10.0 mi WSW 10.4 mph - N/A   Overcast
11:30 AM 69.8 °F 66.2 °F 88% 29.95 in 10.0 mi SW 6.9 mph - N/A   Overcast
11:41 AM 71.6 °F 68.0 °F 88% 29.95 in 10.0 mi SW 9.2 mph - N/A   Overcast
11:51 AM 73.4 °F 68.0 °F 83% 29.94 in 10.0 mi WSW 11.5 mph - N/A   Mostly Cloudy
11:53 AM 73.0 °F 68.0 °F 84% 29.93 in 10.0 mi WSW 9.2 mph - N/A   Mostly Cloudy
12:37 PM 73.4 °F 66.2 °F 78% 29.94 in 10.0 mi WSW 13.8 mph - N/A   Mostly Cloudy
12:53 PM 75.0 °F 68.0 °F 79% 29.92 in 10.0 mi West 10.4 mph - 0.00 in   Mostly Cloudy
1:53 PM 75.9 °F 66.9 °F 74% 29.90 in 10.0 mi West 15.0 mph - N/A   Mostly Cloudy
2:53 PM 75.9 °F 63.0 °F 64% 29.90 in 10.0 mi WNW 19.6 mph 26.5 mph N/A   Scattered Clouds
3:53 PM 73.9 °F 54.0 °F 50% 29.91 in 10.0 mi NW 20.7 mph 27.6 mph N/A   Clear
4:53 PM 72.0 °F 57.0 °F 59% 29.92 in 10.0 mi NW 19.6 mph 26.5 mph N/A   Clear
5:53 PM 69.1 °F 55.0 °F 61% 29.94 in 10.0 mi WNW 20.7 mph 24.2 mph N/A   Partly Cloudy
6:53 PM 68.0 °F 55.0 °F 63% 29.95 in 10.0 mi NW 12.7 mph - N/A   Scattered Clouds
7:53 PM 66.9 °F 55.0 °F 66% 29.95 in 10.0 mi NNW 12.7 mph - N/A   Clear
8:53 PM 63.0 °F 55.9 °F 78% 29.96 in 10.0 mi WNW 6.9 mph - N/A   Clear
9:53 PM 62.1 °F 55.9 °F 80% 29.96 in 10.0 mi NW 9.2 mph - N/A   Clear
10:53 PM 62.1 °F 54.0 °F 75% 29.96 in 10.0 mi NNW 10.4 mph - N/A   Clear
11:53 PM 60.1 °F 55.0 °F 83% 29.96 in 10.0 mi NNW 8.1 mph - N/A   Clear